Weather observations for the past three days for
Ocean City, Ocean City Municipal Airport
Imperial (Metric)
Date Time (edt) Wind (mph) Vis. (mi.) Weather Sky Cond. Temperature (ºF) Relative Humidity Wind Chill (°F) Heat Index (°F) Pressure Precipitation (in)
Air Dwpt 6 hour altimeter (in) sea level (mb) 1 hr 3 hr 6 hr
Max. Min.
24 09:53 W 6 10.00 Mostly Cloudy BKN075 81 77 88% 88 29.71 1006.0 0.01
24 08:53 W 7 10.00 Overcast FEW022 SCT037 OVC070 80.1 73.9 82% 85 29.7 1005.6 0.01
24 07:53 W 9 G 18 10.00 A Few Clouds FEW070 82 73.9 82.9 77 77% 88 29.7 1005.6
24 06:53 W 12 G 18 10.00 A Few Clouds FEW120 81 72 74% 85 29.69 1005.3
24 05:53 W 14 G 24 10.00 Overcast BKN090 OVC110 82 70 67% 86 29.68 1005.0
24 01:53 SW 10 G 21 10.00 A Few Clouds FEW110 79 73 82 78.1 82% 82 29.7 1005.5
24 00:53 SW 15 G 24 10.00 A Few Clouds FEW120 79 73 82% 82 29.7 1005.7
23 23:53 SW 13 G 24 10.00 A Few Clouds FEW110 81 73 77% 86 29.72 1006.4
23 21:53 SW 14 G 23 10.00 Fair CLR 82 73 74% 87 29.72 1006.5
23 18:53 SW 20 G 36 10.00 Fair CLR 82 72 72% 87 29.74 1006.9
23 17:53 S 12 G 25 10.00 A Few Clouds FEW005 80.1 70 71% 83 29.73 1006.6
23 16:53 S 12 G 23 10.00 Fair CLR 84 72 67% 90 29.75 1007.4
23 15:53 SW 20 G 38 10.00 A Few Clouds FEW003 84 72 67% 90 29.77 1007.9
23 14:53 S 14 G 24 10.00 Fair CLR 84 72 67% 90 29.78 1008.5
23 12:53 S 9 G 22 10.00 Fair CLR 82 71.1 69% 86 29.82 1009.7
23 09:53 S 13 G 22 10.00 Fair CLR 84.9 73 68% 92 29.86 1011.2
23 08:53 SW 14 G 22 10.00 Fair CLR 87.1 73.9 65% 95 29.88 1011.6
23 05:53 SW 7 10.00 Fair CLR 78.1 73 85% 81 29.9 1012.5
23 04:53 SW 8 10.00 Fair CLR 78.1 73.9 87% 81 29.9 1012.4
23 03:53 SW 8 10.00 Fair CLR 78.1 73.9 87% 81 29.91 1012.6
23 01:53 S 6 10.00 Fair CLR 75.9 73 80.1 75 91% 76 29.94 1013.8
23 00:53 SW 9 G 20 10.00 Mostly Cloudy BKN008 77 73.9 90% 78 29.95 1014.1
22 23:53 SW 13 G 21 10.00 Fair CLR 77 73 88% 78 29.97 1014.7
22 22:53 SW 9 G 21 10.00 Fair CLR 78.1 73 85% 81 29.98 1015.2
22 20:53 SW 15 G 24 10.00 Fair CLR 79 73 82% 82 29.98 1015.1
22 19:53 SW 15 G 25 10.00 Fair CLR 80.1 73.9 84 80.1 82% 85 29.97 1014.9
22 17:53 SW 9 G 22 10.00 Fair CLR 82 73.9 77% 88 29.97 1014.8
22 15:53 S 9 G 25 10.00 Fair CLR 82.9 72 70% 88 30 1015.9
22 14:53 S 9 G 21 10.00 Fair CLR 82 72 72% 87 30.01 1016.2
22 13:53 SW 7 G 18 10.00 Fair CLR 82.9 72 89.1 79 70% 88 30.03 1016.9
22 12:53 S 10 G 17 10.00 Fair CLR 84 71.1 65% 89 30.05 1017.4
22 11:53 S 9 10.00 Fair CLR 87.1 72 61% 94 30.07 1018.1
22 10:53 S 6 10.00 Fair CLR 87.1 72 61% 94 30.07 1018.2
22 08:53 Vrbl 6 10.00 Fair CLR 84 73 70% 90 30.1 1019.3
22 07:53 SW 9 10.00 Fair CLR 79 73 79 75 82% 82 30.1 1019.2
22 05:53 SW 6 10.00 Fair CLR 75.9 72 88% 76 30.1 1019.4
22 04:53 SW 8 10.00 Fair CLR 75.9 72 88% 76 30.11 1019.4
22 03:53 SW 7 10.00 A Few Clouds FEW009 75.9 72 88% 76 30.11 1019.7
22 02:53 SW 10 G 20 10.00 Mostly Cloudy BKN012 77 72 85% 78 30.13 1020.1
22 01:53 SW 10 10.00 Fair CLR 75.9 71.1 79 75.9 85% 76 30.13 1020.4
21 23:53 SW 12 G 21 10.00 Fair CLR 75.9 70 82% 77 30.16 1021.2
21 22:53 SW 10 G 21 10.00 Fair CLR 75.9 69.1 79% 77 30.16 1021.1
21 18:53 SW 12 G 20 10.00 Fair CLR 80.1 69.1 69% 83 30.14 1020.4
21 17:53 SW 14 G 23 10.00 Fair CLR 82.9 66.9 59% 86 30.14 1020.6
21 14:53 S 10 G 20 10.00 Fair CLR 81 71.1 72% 85 30.19 1022.4
21 13:53 S 8 10.00 Fair CLR 82 71.1 84 77 69% 86 30.21 1022.8
21 12:53 S 12 G 20 10.00 Fair CLR 80.1 70 71% 83 30.22 1023.3
21 11:53 S 9 G 18 10.00 Partly Cloudy SCT035 82 70 67% 86 30.24 1023.9
21 10:53 Vrbl 6 10.00 Partly Cloudy SCT030 82.9 70 65% 87 30.24 1024.0
Date Time (edt) Wind (mph) Vis. (mi.) Weather Sky Cond. Air Dwpt Max. Min. Relative Humidity Wind Chill (°F) Heat Index (°F) altimeter (in) sea level (mb) 1 hr 3 hr 6 hr
6 hour
Temperature (ºF) Pressure Precipitation (in)